| time (UTC) | temp F | wind direction | speed knots | gust knots | rain 1hr in | rain 24hr in | rain mn in | humidity % | barometer mb |
| 20260507121516 | 63 | 43 | 5.2 | 10.4 | 0.00 | 0.00 | 0.00 | 73 | 1014.7 |
| 20260507120026 | 63 | 36 | 6.1 | 12.2 | 0.00 | 0.00 | 0.00 | 73 | 1014.7 |
| 20260507114508 | 64 | 24 | 7.0 | 16.5 | 0.00 | 0.00 | 0.00 | 73 | 1013.6 |
| 20260507113007 | 64 | 59 | 7.0 | 12.2 | 0.00 | 0.00 | 0.00 | 72 | 1013.2 |
| 20260507111506 | 64 | 30 | 6.1 | 10.4 | 0.00 | 0.00 | 0.00 | 72 | 1013.0 |
| 20260507110004 | 64 | 41 | 5.2 | 9.6 | 0.00 | 0.00 | 0.00 | 72 | 1013.2 |
| 20260507104504 | 64 | 17 | 4.3 | 12.2 | 0.00 | 0.00 | 0.00 | 72 | 1012.9 |
| 20260507103101 | 64 | 42 | 6.1 | 11.3 | 0.00 | 0.00 | 0.00 | 72 | 1012.7 |
| 20260507101559 | 64 | 14 | 6.1 | 9.6 | 0.00 | 0.00 | 0.00 | 72 | 1013.1 |
| 20260507094606 | 64 | 39 | 4.3 | 11.3 | 0.00 | 0.00 | 0.00 | 72 | 1012.5 |
| 20260507093056 | 64 | 360 | 6.1 | 10.4 | 0.00 | 0.00 | 0.00 | 73 | 1012.7 |
| 20260507091554 | 64 | 35 | 5.2 | 9.6 | 0.00 | 0.00 | 0.00 | 73 | 1012.8 |
| 20260507090054 | 64 | 35 | 3.5 | 7.8 | 0.00 | 0.00 | 0.00 | 73 | 1012.9 |
| 20260507084559 | 64 | 28 | 4.3 | 8.7 | 0.00 | 0.00 | 0.00 | 73 | 1012.7 |
| 20260507083053 | 64 | 51 | 4.3 | 7.8 | 0.00 | 0.00 | 0.00 | 73 | 1012.8 |
| 20260507081551 | 64 | 47 | 3.5 | 7.0 | 0.00 | 0.00 | 0.00 | 73 | 1012.6 |
| 20260507080053 | 64 | 360 | 5.2 | 10.4 | 0.00 | 0.00 | 0.00 | 73 | 1012.6 |
| 20260507074551 | 64 | 23 | 5.2 | 10.4 | 0.00 | 0.00 | 0.00 | 73 | 1012.7 |
| 20260507073051 | 65 | 22 | 2.6 | 9.6 | 0.00 | 0.00 | 0.00 | 73 | 1013.1 |
| 20260507071547 | 65 | 23 | 4.3 | 8.7 | 0.00 | 0.00 | 0.00 | 73 | 1012.8 |
| 20260507070057 | 65 | 53 | 4.3 | 11.3 | 0.00 | 0.00 | 0.00 | 73 | 1012.9 |
| 20260507064547 | 65 | 50 | 5.2 | 11.3 | 0.00 | 0.00 | 0.00 | 73 | 1013.0 |
| 20260507063046 | 65 | 35 | 6.1 | 13.0 | 0.00 | 0.00 | 0.00 | 73 | 1013.0 |
| 20260507061541 | 65 | 45 | 6.1 | 10.4 | 0.00 | 0.00 | 0.00 | 73 | 1012.8 |
| 20260507060046 | 65 | 33 | 2.6 | 10.4 | 0.00 | 0.00 | 0.00 | 73 | 1012.8 |
| 20260507054540 | 65 | 11 | 6.1 | 11.3 | 0.00 | 0.00 | 0.00 | 73 | 1012.4 |
| 20260507053034 | 65 | 51 | 7.0 | 11.3 | 0.00 | 0.00 | 0.00 | 73 | 1012.3 |
| 20260507051529 | 66 | 35 | 4.3 | 9.6 | 0.00 | 0.00 | 0.00 | 73 | 1012.3 |
| 20260507050048 | 66 | 79 | 4.3 | 9.6 | 0.00 | 0.00 | 0.00 | 73 | 1012.3 |
| 20260507044524 | 66 | 30 | 5.2 | 12.2 | 0.00 | 0.00 | 0.00 | 73 | 1012.4 |
| 20260507043019 | 66 | 17 | 6.1 | 9.6 | 0.00 | 0.00 | 0.00 | 73 | 1012.2 |
| 20260507041515 | 66 | 49 | 3.5 | 7.8 | 0.00 | 0.00 | 0.00 | 73 | 1011.9 |
| 20260507040016 | 66 | 42 | 3.5 | 9.6 | 0.00 | 0.00 | 0.00 | 73 | 1011.5 |
| 20260507034513 | 66 | 34 | 6.1 | 13.9 | 0.00 | 0.00 | 0.00 | 73 | 1011.4 |
| 20260507033015 | 66 | 329 | 7.0 | 11.3 | 0.00 | 0.00 | 0.00 | 72 | 1011.6 |
| 20260507031509 | 66 | 51 | 3.5 | 11.3 | 0.00 | 0.00 | 0.00 | 72 | 1011.4 |
| 20260507030007 | 66 | 57 | 4.3 | 11.3 | 0.00 | 0.00 | 0.00 | 72 | 1011.3 |
| 20260507024503 | 67 | 35 | 4.3 | 13.9 | 0.00 | 0.00 | 0.00 | 71 | 1011.1 |
| 20260507023101 | 67 | 38 | 6.1 | 13.9 | 0.00 | 0.00 | 0.00 | 71 | 1010.9 |
| 20260507021605 | 67 | 24 | 3.5 | 8.7 | 0.00 | 0.00 | 0.00 | 71 | 1010.6 |
| 20260507020057 | 68 | 30 | 3.5 | 9.6 | 0.00 | 0.00 | 0.00 | 70 | 1010.4 |
| 20260507014556 | 68 | 42 | 5.2 | 12.2 | 0.00 | 0.00 | 0.00 | 70 | 1010.0 |
| 20260507013050 | 68 | 23 | 7.8 | 10.4 | 0.00 | 0.00 | 0.00 | 69 | 1009.6 |
| 20260507011550 | 69 | 5 | 5.2 | 10.4 | 0.00 | 0.00 | 0.00 | 68 | 1009.7 |
| 20260507010046 | 70 | 48 | 4.3 | 9.6 | 0.00 | 0.00 | 0.00 | 68 | 1009.5 |
| 20260507004539 | 72 | 37 | 5.2 | 13.0 | 0.00 | 0.00 | 0.00 | 67 | 1008.9 |
| 20260507003036 | 73 | 16 | 7.0 | 12.2 | 0.00 | 0.00 | 0.00 | 66 | 1008.8 |
| 20260507001534 | 74 | 55 | 5.2 | 9.6 | 0.00 | 0.00 | 0.00 | 67 | 1008.6 |
| 20260507000035 | 75 | 34 | 5.2 | 12.2 | 0.00 | 0.00 | 0.00 | 66 | 1008.3 |
| 20260506234529 | 76 | 343 | 7.8 | 13.0 | 0.00 | 0.00 | 0.00 | 66 | 1008.1 |
| 20260506233028 | 77 | 55 | 6.1 | 13.0 | 0.00 | 0.00 | 0.00 | 66 | 1008.0 |
| 20260506231528 | 78 | 22 | 6.1 | 15.6 | 0.00 | 0.00 | 0.00 | 66 | 1007.6 |
| 20260506230026 | 79 | 360 | 7.8 | 15.6 | 0.00 | 0.00 | 0.00 | 66 | 1007.5 |
| 20260506224523 | 81 | 61 | 6.1 | 13.0 | 0.00 | 0.00 | 0.00 | 68 | 1007.1 |
| 20260506223023 | 82 | 67 | 6.1 | 13.0 | 0.00 | 0.00 | 0.00 | 68 | 1006.8 |
| 20260506221523 | 83 | 64 | 4.3 | 7.8 | 0.00 | 0.00 | 0.00 | 69 | 1006.7 |
| 20260506220030 | 83 | 61 | 4.3 | 10.4 | 0.00 | 0.00 | 0.00 | 69 | 1006.7 |
| 20260506214522 | 83 | 9 | 3.5 | 10.4 | 0.00 | 0.00 | 0.00 | 69 | 1006.8 |
| 20260506213028 | 84 | 44 | 5.2 | 12.2 | 0.00 | 0.00 | 0.00 | 68 | 1006.7 |
| 20260506211524 | 85 | 48 | 1.7 | 6.1 | 0.00 | 0.00 | 0.00 | 67 | 1006.6 |
| 20260506210025 | 85 | 34 | 1.7 | 5.2 | 0.00 | 0.00 | 0.00 | 68 | 1006.8 |
| 20260506204520 | 85 | 47 | 1.7 | 3.5 | 0.00 | 0.00 | 0.00 | 67 | 1006.9 |
| 20260506203024 | 85 | 9 | 0.0 | 3.5 | 0.00 | 0.00 | 0.00 | 67 | 1007.2 |
| 20260506201518 | 86 | 49 | 0.9 | 3.5 | 0.00 | 0.00 | 0.00 | 68 | 1007.2 |
| 20260506200017 | 86 | 111 | 0.9 | 4.3 | 0.00 | 0.00 | 0.00 | 69 | 1007.1 |
| 20260506194516 | 86 | 83 | 1.7 | 3.5 | 0.00 | 0.00 | 0.00 | 70 | 1007.1 |
| 20260506193017 | 85 | 42 | 0.9 | 5.2 | 0.00 | 0.00 | 0.00 | 71 | 1007.3 |
| 20260506191512 | 84 | 73 | 0.9 | 3.5 | 0.00 | 0.00 | 0.00 | 70 | 1007.4 |
| 20260506190010 | 84 | 33 | 0.9 | 3.5 | 0.00 | 0.00 | 0.00 | 72 | 1007.6 |
| 20260506184507 | 83 | 83 | 0.0 | 4.3 | 0.00 | 0.00 | 0.00 | 75 | 1007.8 |
| 20260506183005 | 83 | 5 | 3.5 | 5.2 | 0.00 | 0.00 | 0.00 | 74 | 1008.1 |
| 20260506181505 | 82 | 28 | 1.7 | 4.3 | 0.00 | 0.00 | 0.00 | 75 | 1008.2 |
| 20260506180003 | 82 | 13 | 2.6 | 4.3 | 0.00 | 0.00 | 0.00 | 76 | 1008.4 |
| 20260506174603 | 81 | 43 | 3.5 | 7.0 | 0.00 | 0.00 | 0.00 | 76 | 1008.3 |
| 20260506173112 | 81 | 47 | 2.6 | 7.0 | 0.00 | 0.00 | 0.00 | 77 | 1008.6 |
| 20260506171600 | 80 | 44 | 2.6 | 6.1 | 0.00 | 0.00 | 0.00 | 78 | 1008.9 |
| 20260506170054 | 80 | 46 | 1.7 | 4.3 | 0.00 | 0.00 | 0.00 | 80 | 1008.7 |
| 20260506164553 | 79 | 42 | 1.7 | 7.0 | 0.00 | 0.00 | 0.00 | 80 | 1008.7 |
| 20260506163052 | 78 | 32 | 1.7 | 5.2 | 0.00 | 0.00 | 0.00 | 80 | 1008.7 |
| 20260506161556 | 78 | 13 | 1.7 | 5.2 | 0.00 | 0.00 | 0.00 | 81 | 1008.7 |
| 20260506160046 | 77 | 24 | 1.7 | 4.3 | 0.00 | 0.00 | 0.00 | 81 | 1008.6 |
| 20260506154541 | 77 | 28 | 1.7 | 3.5 | 0.00 | 0.00 | 0.00 | 81 | 1008.4 |
| 20260506153039 | 77 | 32 | 0.9 | 3.5 | 0.00 | 0.00 | 0.00 | 81 | 1008.2 |
| 20260506151555 | 77 | 31 | 0.9 | 2.6 | 0.00 | 0.00 | 0.00 | 82 | 1008.0 |
| 20260506150036 | 77 | 31 | 0.0 | 3.5 | 0.00 | 0.00 | 0.00 | 82 | 1007.9 |
| 20260506144534 | 76 | 117 | 0.9 | 2.6 | 0.00 | 0.00 | 0.00 | 82 | 1007.5 |
| 20260506143043 | 76 | 116 | 1.7 | 2.6 | 0.00 | 0.00 | 0.00 | 82 | 1007.3 |
| 20260506141531 | 76 | 119 | 0.9 | 2.6 | 0.00 | 0.00 | 0.00 | 82 | 1007.3 |
| 20260506140033 | 76 | 121 | 0.0 | 2.6 | 0.00 | 0.00 | 0.00 | 82 | 1007.0 |
| 20260506134525 | 75 | 122 | 0.9 | 2.6 | 0.00 | 0.00 | 0.00 | 82 | 1006.6 |
| 20260506133025 | 75 | 134 | 0.9 | 2.6 | 0.00 | 0.00 | 0.00 | 82 | 1006.6 |
| 20260506131526 | 75 | 139 | 0.9 | 2.6 | 0.00 | 0.00 | 0.00 | 82 | 1006.6 |
| 20260506130023 | 75 | 179 | 0.0 | 1.7 | 0.00 | 0.00 | 0.00 | 82 | 1006.6 |
| 20260506124520 | 75 | 179 | 0.0 | 0.9 | 0.00 | 0.00 | 0.00 | 82 | 1006.7 |
| 20260506123020 | 74 | 179 | 0.0 | 0.9 | 0.00 | 0.00 | 0.00 | 82 | 1006.5 |